CAPE
0 0 0 0 0 0 0 0 0 0 4 0 0 0 0 0 0 0 0 0 0 0 0 78 221 180 145 100 0 0 0 125 489 573 787 865 862 762 670 659 665 765 903 955 923 733 723 583 406
0 0 0 0 0 0 0 0 0 0 0 0 0 0 0 0 178 67 16 0 0 0 3 23 123 75 43 10 0 0 0 0 2 216 471 416 537 628 651 550 455 460 602 673 663 544 390 367 348
0 0 0 0 0 0 0 0 7 0 0 0 0 0 0 114 67 22 12 0 0 0 4 9 94 71 101 152 210 294 288 294 0 0 181 243 346 483 614 557 377 377 419 496 468 435 494 493 407
0 0 0 0 0 0 0 0 9 0 8 0 0 0 0 156 113 42 0 0 0 1 2 173 260 284 308 362 222 77 37 304 461 5 23 502 797 652 643 331 325 303 233 364 410 351 241 300 210
0 0 0 0 0 0 0 0 2 1 32 19 0 0 0 157 59 5 0 0 0 1 0 94 377 418 327 140 26 3 0 4 152 340 34 101 402 609 624 458 257 172 166 297 318 186 66 92 285
0 0 0 0 0 0 0 0 0 0 1 0 0 0 1 78 4 0 0 0 0 6 54 140 389 415 215 124 49 21 15 34 15 9 60 41 283 690 784 409 192 85 84 139 194 163 62 125 189
0 0 0 0 0 0 0 0 0 0 19 1 0 0 19 13 0 0 0 0 0 72 144 68 88 228 295 208 86 52 31 52 153 182 61 85 127 344 554 467 294 177 139 95 37 39 62 242 271
0 0 0 0 0 0 0 0 0 0 10 0 0 1 32 6 0 0 0 1 0 86 81 0 6 103 22 53 151 88 78 55 153 218 216 159 95 131 187 472 434 267 224 208 115 84 332 445 452
0 0 0 0 0 0 0 0 0 0 15 5 0 0 0 0 0 0 0 1 0 7 20 0 0 0 0 0 34 186 140 71 81 47 147 404 10 0 77 97 184 235 256 254 292 528 742 726 542
0 0 0 0 0 0 0 0 9 31 14 2 0 0 0 0 0 0 0 0 0 0 55 0 0 0 0 111 5 0 0 0 0 1 0 0 0 0 47 94 244 185 265 324 605 877 906 579 32
0 0 0 0 0 0 0 0 4 49 47 4 0 1 0 0 0 0 0 0 0 0 26 0 0 0 0 52 0 0 0 0 0 0 0 0 0 0 0 0 2 16 209 167 49 0 0 0 0
0 0 0 0 0 0 0 0 78 75 66 5 0 0 0 0 0 0 0 0 0 0 0 0 0 0 0 0 0 0 0 0 0 0 0 0 0 0 0 0 0 0 0 0 0 0 0 0 0
0 0 0 0 0 0 0 0 39 82 2 0 0 0 0 0 0 0 0 0 0 0 0 0 0 0 0 0 0 0 0 0 0 0 0 0 0 0 0 0 0 0 0 0 0 0 0 0 0
0 0 0 0 0 0 0 27 109 68 0 0 0 0 0 0 0 0 0 0 0 0 0 0 0 2 0 0 0 0 0 0 0 0 0 0 0 0 0 0 0 0 0 0 0 0 0 0 0
0 0 0 0 0 0 18 120 96 45 0 0 0 0 0 0 0 0 0 0 0 0 0 0 0 0 0 0 0 0 0 0 0 0 0 0 0 0 0 0 0 2 0 0 0 0 3 0 9
0 0 0 0 0 0 0 0 57 16 7 0 0 0 0 0 0 0 0 0 0 0 0 0 0 0 0 0 0 0 0 0 0 0 0 0 0 9 22 36 24 22 23 17 16 58 239 229 160
0 0 0 0 0 0 0 0 0 4 4 0 0 0 0 0 0 0 0 0 0 0 0 0 0 0 0 0 0 0 0 0 0 0 0 0 3 68 64 113 182 144 144 149 160 293 308 464 463
0 0 0 0 0 0 0 0 0 15 9 7 0 0 0 0 0 0 0 0 0 0 0 0 0 0 0 0 0 0 0 0 0 0 0 0 0 30 82 78 65 73 115 128 180 407 355 379 674
0 0 0 0 0 0 0 0 0 0 36 31 18 3 0 0 0 0 0 0 0 0 0 0 0 0 0 0 0 0 0 0 0 0 0 0 0 0 0 107 130 41 103 262 285 199 266 462 379
0 0 0 0 0 0 0 0 0 0 72 78 80 35 12 0 0 0 0 0 0 0 0 0 0 0 0 0 0 0 0 0 0 0 0 81 297 280 87 3 10 181 240 271 241 259 381 616 306
0 0 0 0 0 0 0 0 0 0 5 120 143 74 39 7 0 0 0 0 0 0 0 0 0 0 0 0 0 0 0 6 76 177 411 400 402 544 486 246 121 144 275 347 338 626 772 662 378
0 0 0 0 0 0 0 0 0 0 0 15 102 19 59 1 0 0 0 0 0 0 0 0 0 0 0 0 0 0 3 28 457 448 342 142 34 54 128 333 336 240 330 285 319 138 287 172 346
0 0 0 0 0 0 0 0 0 0 0 0 0 0 0 7 9 595 554 17 14 0 0 0 0 0 0 0 0 3 52 158 419 471 302 54 4 0 1 1 2 3 3 2 1 1 1 3 2
0 0 0 0 0 0 0 0 0 0 0 59 669 639 763 645 602 525 540 457 422 449 376 269 300 280 146 0 16 70 298 859 577 405 87 2 1 2 0 0 1 1 1 0 0 0 0 0 0
0 0 0 0 0 0 0 0 0 85 105 250 804 780 684 561 550 580 565 385 494 480 398 177 250 262 245 147 50 170 293 236 175 109 4 1 2 2 0 0 0 0 0 0 0 0 0 0 0
0 0 0 0 0 0 0 0 0 322 567 722 759 774 694 380 248 311 264 284 238 179 139 190 108 56 78 5 2 41 51 20 6 0 0 0 0 0 0 0 0 0 0 0 0 0 0 0 0
0 0 0 0 0 0 0 33 446 552 442 499 918 516 271 149 280 230 121 165 314 248 218 122 31 8 1 2 1 0 0 0 0 0 0 0 0 0 0 0 0 0 0 0 0 0 0 0 0
0 0 0 0 0 0 0 0 18 599 756 749 648 618 546 529 405 392 240 91 22 2 2 0 1 1 1 1 0 0 0 0 0 0 0 0 0 0 0 0 0 0 0 0 0 0 0 0 0
0 0 0 0 0 0 0 0 0 533 836 723 604 671 685 180 79 55 75 43 20 1 0 1 1 2 1 0 0 0 0 0 0 0 0 0 0 0 0 0 0 0 0 0 0 0 0 0 0
0 0 0 0 0 0 0 0 79 682 965 803 659 567 521 376 341 178 57 30 1 1 1 1 1 0 0 0 0 0 0 0 0 0 0 0 0 0 0 0 0 0 0 0 0 0 0 0 0
CIN
0 0 0 0 0 0 0 0 0 0 -27 0 0 0 0 0 0 0 0 -19 0 0 0 -230 -111 -107 -110 -128 0 0 0 -59 -5 0 0 0 0 0 0 0 0 0 0 0 0 -2 -8 -20 -41
0 0 0 0 0 0 0 0 0 0 0 0 0 0 0 0 -298 -387 -444 -34 0 0 -328 -369 -183 -196 -202 -79 0 0 0 0 -19 -12 0 -2 -2 0 0 0 0 -5 -2 -2 0 -8 -24 -32 -29
0 0 0 0 0 0 0 0 -102 0 0 -62 0 0 0 -273 -394 -472 -553 0 0 0 -451 -403 -183 -186 -163 -95 -67 -55 -37 -33 0 0 -23 -14 -12 -3 0 -1 -6 -11 -12 -10 -10 -17 -17 -19 -27
0 0 0 0 0 0 0 0 -140 0 -329 0 0 0 0 -345 -420 -512 -6 0 0 0 -130 -185 -121 -102 -92 -70 -70 -107 -139 -35 -10 -51 -109 -2 0 0 0 -8 -13 -23 -39 -27 -19 -24 -36 -33 -45
0 0 0 0 0 0 0 0 -80 -88 -312 -372 0 0 0 -392 -512 -285 0 0 0 0 0 -268 -106 -94 -90 -130 -209 -269 -72 -285 -111 -39 -164 -102 -10 -1 0 -2 -30 -53 -58 -36 -32 -52 -90 -69 -47
0 0 0 0 0 0 0 0 0 0 -221 0 0 0 -194 -499 -563 0 0 0 0 -238 -364 -233 -125 -102 -150 -166 -216 -246 -258 -225 -212 -281 -194 -202 -75 -1 0 -17 -66 -94 -92 -75 -65 -76 -103 -74 -54
0 0 0 0 0 0 0 0 0 -27 -435 -90 0 0 -594 -607 0 0 0 0 0 -365 -299 -355 -303 -192 -158 -178 -215 -253 -284 -245 -174 -160 -233 -205 -177 -80 -24 -34 -73 -89 -92 -110 -141 -139 -130 -79 -58
0 0 0 0 0 0 0 0 0 0 -227 0 0 -229 -600 -683 0 0 0 0 0 -384 -388 -1 -430 -293 -356 -323 -203 -252 -264 -280 -210 -180 -177 -201 -226 -193 -155 -70 -75 -111 -112 -114 -144 -157 -92 -73 -67
0 0 0 0 0 0 0 0 0 -44 -468 -524 0 0 0 -84 0 0 0 0 0 -363 -487 0 0 0 0 0 -358 -223 -243 -295 -292 -189 -227 -149 -226 0 -270 -252 -197 -166 -154 -148 -125 -78 -56 -56 -78
0 0 0 0 0 0 0 0 -404 -389 -460 -55 0 0 0 0 0 0 0 0 0 0 -493 0 0 0 0 -329 -299 0 0 0 0 -55 0 0 0 0 -327 -280 -199 -215 -182 -155 -97 -69 -69 -98 -88
0 0 0 0 0 0 0 0 -61 -430 -415 -104 0 -545 0 0 0 0 0 0 0 0 -557 -1 0 0 0 -416 0 0 0 0 0 0 0 0 0 0 0 0 -61 -339 -252 -264 -335 0 0 0 0
0 0 0 0 0 0 0 0 -425 -398 -336 -603 0 0 0 0 0 0 0 0 0 0 0 -1 0 0 0 0 0 0 0 0 0 0 0 0 0 0 0 0 0 0 0 0 0 0 0 0 0
0 0 0 0 0 0 0 0 -385 -412 -349 0 0 0 0 0 0 0 0 0 0 0 0 0 0 0 0 0 0 0 0 0 0 0 0 0 0 0 0 0 0 0 0 0 0 0 0 0 0
0 0 0 0 0 0 0 -348 -259 -511 0 0 0 0 0 0 0 0 0 0 0 0 0 0 0 -358 0 0 0 0 0 0 0 0 0 0 0 0 0 0 0 0 0 0 0 0 0 0 0
0 0 0 0 0 0 -146 -222 -220 -557 0 0 0 0 0 0 0 0 0 0 0 0 0 0 0 0 0 0 0 0 0 0 0 0 0 0 0 0 0 0 0 -748 0 0 0 0 -639 0 -546
0 0 0 0 0 0 0 0 -279 -650 -737 0 0 0 0 0 0 0 0 0 0 0 0 0 0 0 0 0 0 0 0 0 0 0 0 0 0 -764 -740 -677 -707 -695 -690 -676 -663 -554 -360 -337 -389
0 0 0 0 0 0 0 0 0 -697 -701 -81 0 0 0 0 0 0 0 0 0 0 0 0 0 0 0 0 0 0 0 0 0 0 0 0 -354 -651 -673 -579 -485 -540 -500 -468 -429 -321 -298 -213 -202
0 0 0 0 0 0 0 0 0 -578 -652 -680 0 0 0 0 0 0 0 0 0 0 0 0 0 0 0 0 0 0 0 0 0 0 0 0 0 -732 -648 -598 -577 -555 -479 -442 -384 -241 -228 -196 -132
0 0 0 0 0 0 0 0 0 0 -624 -629 -658 -667 0 0 0 0 0 0 0 0 0 0 0 0 0 0 0 0 0 0 0 0 0 0 0 0 -753 -576 -492 -531 -461 -340 -258 -289 -237 -173 -186
0 0 0 0 0 0 0 0 0 0 -535 -516 -562 -614 -616 0 0 0 0 0 0 0 0 0 0 0 0 0 0 0 0 0 0 0 0 -202 -418 -424 -581 -317 -574 -417 -382 -361 -319 -266 -186 -129 -211
0 0 0 0 0 0 0 0 0 0 -137 -494 -506 -515 -524 -535 0 0 0 0 0 0 0 0 0 0 0 0 0 0 0 -737 -547 -473 -379 -372 -357 -308 -328 -431 -509 -483 -376 -334 -301 -167 -115 -110 -160
0 0 0 0 0 0 0 0 0 0 0 -452 -507 -639 -526 -83 0 0 0 0 0 0 0 0 0 0 0 0 0 0 -112 -516 -315 -296 -280 -396 -514 -489 -419 -329 -314 -344 -274 -227 -228 -291 -160 -199 -125
0 0 0 0 0 0 0 0 0 0 0 0 0 0 0 -67 -67 -787 -793 -126 -61 0 0 0 0 0 0 0 0 -646 -450 -347 -269 -260 -283 -480 -581 0 0 0 0 0 0 0 0 0 0 0 0
0 0 0 0 0 0 0 0 0 0 0 -686 -707 -743 -714 -734 -769 -786 -784 -777 -733 -713 -679 -680 -601 -493 -477 0 -512 -408 -292 -157 -190 -232 -374 0 0 0 0 0 0 0 0 0 0 0 0 0 0
0 0 0 0 0 0 0 0 0 -365 -669 -557 -655 -635 -651 -717 -730 -744 -731 -739 -692 -651 -594 -585 -582 -500 -420 -393 -372 -334 -225 -268 -298 -347 -210 0 0 0 0 0 0 0 0 0 0 0 0 0 0
0 0 0 0 0 0 0 0 0 -416 -453 -523 -603 -617 -635 -741 -784 -790 -797 -733 -685 -719 -675 -627 -638 -624 -461 -85 -16 -412 -453 -376 -51 0 0 0 0 0 0 0 0 0 0 0 0 0 0 0 0
0 0 0 0 0 0 0 -230 -307 -314 -361 -452 -485 -633 -702 -765 -696 -695 -756 -700 -585 -563 -585 -618 -638 -823 0 0 0 0 0 0 0 0 0 0 0 0 0 0 0 0 0 0 0 0 0 0 0
0 0 0 0 0 0 0 0 -97 -295 -283 -319 -416 -468 -493 -507 -550 -557 -581 -654 -613 0 0 0 0 0 0 0 0 0 0 0 0 0 0 0 0 0 0 0 0 0 0 0 0 0 0 0 0
0 0 0 0 0 0 0 0 0 -321 -325 -319 -330 -323 -340 -476 -562 -625 -598 -630 -607 0 0 0 0 0 0 0 0 0 0 0 0 0 0 0 0 0 0 0 0 0 0 0 0 0 0 0 0
0 0 0 0 0 0 0 0 -505 -327 -258 -271 -320 -370 -377 -455 -461 -538 -602 -572 0 0 0 0 0 0 0 0 0 0 0 0 0 0 0 0 0 0 0 0 0 0 0 0 0 0 0 0 0
Wind_Speed
4 4 2 3 5 5 3 3 3 0 1 2 6 4 7 3 2 4 3 5 13 11 7 10 15 13 12 12 12 12 12 12 11 11 10 12 11 11 10 9 8 7 7 7 7 6 6 6 6
3 2 3 2 6 4 5 3 3 1 3 7 7 4 5 2 4 7 6 7 13 11 6 7 15 15 14 13 13 12 12 11 10 10 10 10 9 10 9 9 8 7 7 6 6 5 5 5 4
1 2 4 5 4 3 4 2 3 3 4 3 4 6 3 2 6 10 7 12 12 8 6 8 14 14 15 13 13 13 11 11 10 10 9 9 8 8 8 8 6 6 6 5 5 4 4 4 4
2 4 5 6 1 3 3 2 3 3 1 6 6 6 5 3 6 7 13 14 12 8 6 11 15 14 14 14 13 13 11 10 10 9 9 8 8 7 7 7 6 5 4 4 4 4 5 5 5
4 3 5 4 4 5 4 2 4 2 3 2 2 4 4 3 9 14 14 12 14 8 6 11 15 15 14 14 13 12 12 10 9 8 8 7 6 6 8 7 5 4 3 2 2 3 3 4 4
4 3 5 2 5 4 3 3 5 2 1 3 5 5 2 5 8 12 11 10 9 11 6 6 15 15 14 13 13 12 11 10 9 8 7 6 6 5 7 5 5 4 3 2 1 0 1 2 2
6 4 4 1 5 5 2 4 4 4 3 1 5 4 1 5 6 8 9 8 9 8 6 5 6 11 14 13 12 11 10 10 9 7 6 6 5 5 4 3 4 4 3 3 3 3 3 2 1
6 5 3 1 1 3 2 4 6 7 3 5 7 6 5 6 10 7 7 7 9 4 4 5 5 5 6 6 11 10 10 9 9 8 7 5 5 4 4 4 5 6 5 5 6 6 5 4 4
3 5 1 1 3 8 6 2 1 2 7 2 1 6 7 17 14 9 7 4 9 8 3 5 5 5 5 5 6 8 10 9 8 7 7 4 1 2 4 5 7 8 8 8 8 7 7 6 5
5 4 5 5 5 3 4 2 6 3 4 2 5 10 18 17 14 12 10 9 11 12 11 5 5 5 5 5 3 4 3 3 3 4 4 3 3 3 4 6 8 9 10 10 9 8 8 7 2
1 3 2 3 6 6 4 3 7 7 4 6 9 15 16 16 12 12 11 13 16 11 10 8 5 5 5 4 3 2 2 2 2 4 4 3 2 2 2 2 3 3 7 3 5 5 3 4 4
1 4 2 4 3 1 4 2 5 7 5 7 17 19 15 17 15 14 13 11 10 10 10 7 5 5 5 3 3 3 2 2 2 3 4 3 2 3 3 2 3 3 3 4 4 3 4 5 5
3 3 5 6 6 7 4 3 5 2 1 14 16 15 15 15 15 13 12 8 7 8 9 8 8 7 6 5 3 3 4 3 3 3 4 3 3 4 3 3 3 4 3 3 4 3 4 5 6
2 3 8 5 4 3 1 1 2 4 6 14 16 15 14 15 16 9 8 8 9 8 10 8 11 8 7 7 6 5 4 5 4 4 6 7 5 4 4 4 4 5 4 3 3 4 5 5 5
6 11 6 3 2 2 6 3 6 7 9 13 13 14 13 14 10 15 14 12 13 9 8 11 11 9 9 10 7 5 6 5 5 6 6 6 6 6 5 4 5 6 4 5 4 5 4 5 5
6 5 6 4 6 2 5 7 3 8 12 12 13 13 14 13 14 12 11 12 10 8 11 9 10 11 9 9 6 4 4 4 5 5 4 7 7 7 5 6 6 5 4 4 3 4 4 4 4
8 3 2 10 7 2 3 5 4 7 8 10 12 12 12 11 9 12 12 13 13 15 11 10 11 12 11 7 5 5 6 5 5 4 5 8 8 8 8 7 8 5 4 4 4 3 3 3 3
4 3 4 5 5 6 2 9 5 9 12 13 9 9 10 12 15 11 13 14 13 13 12 10 9 8 8 4 3 2 3 4 4 5 5 6 5 7 6 6 8 4 4 5 4 4 3 4 5
0 3 7 5 5 4 4 6 11 7 8 8 10 11 11 15 9 8 12 13 12 9 9 11 10 8 8 3 4 2 4 2 3 4 4 4 4 5 6 5 5 4 6 5 3 2 6 3 3
1 3 7 8 3 2 8 15 11 6 15 20 18 14 16 11 8 8 8 9 10 12 12 9 11 10 8 4 3 2 3 3 1 2 2 1 3 3 4 5 5 4 3 6 6 4 2 4 2
1 4 4 8 6 5 3 9 3 4 5 12 10 10 7 11 8 7 7 7 6 8 9 10 9 8 5 6 4 2 0 2 2 2 2 5 5 5 5 3 3 4 4 3 3 4 5 2 1
3 6 7 6 3 4 3 7 7 6 8 9 15 11 15 8 6 4 4 5 5 4 7 7 7 7 6 6 3 3 2 2 2 3 2 5 8 8 8 7 6 6 4 6 6 5 4 2 2
8 2 7 8 5 1 0 2 10 3 7 10 11 7 3 6 8 9 7 8 7 6 7 6 5 5 5 4 5 3 1 1 2 2 4 6 7 9 10 10 9 8 7 7 8 7 7 5 3
5 4 6 5 3 4 8 9 8 5 3 3 3 7 9 11 11 12 11 11 12 10 10 9 10 8 5 4 1 4 5 5 4 4 4 4 6 6 9 10 9 8 8 8 7 8 10 7 8
3 7 5 5 2 8 2 1 9 8 11 8 11 11 10 11 11 13 14 13 13 14 13 11 13 12 9 8 6 5 7 7 6 4 4 5 5 5 7 7 9 8 9 9 8 9 10 8 6
5 9 7 6 3 6 2 8 5 8 3 8 9 13 13 13 11 13 14 14 14 16 16 14 13 14 10 9 8 8 11 5 5 5 5 6 6 5 7 9 9 10 9 8 8 7 7 7 7
2 1 6 3 1 2 6 6 2 3 3 6 11 13 12 13 12 13 12 13 14 13 12 12 12 15 11 7 9 9 8 7 7 8 8 6 5 6 8 9 9 9 9 9 8 7 8 8 7
6 5 2 3 3 6 6 5 6 8 9 8 9 11 10 12 12 11 11 10 8 8 10 12 13 12 10 10 9 8 7 7 9 9 9 8 7 7 9 9 9 9 9 8 8 7 7 9 7
6 5 2 3 6 5 3 9 6 14 15 14 9 8 10 10 9 9 9 9 11 11 11 11 11 13 10 10 10 8 9 9 9 9 8 7 7 7 8 8 9 9 9 7 9 8 8 10 8
9 9 6 4 7 5 4 12 3 7 12 11 13 13 12 14 14 12 11 10 12 9 10 11 11 12 10 10 9 8 8 9 11 8 7 6 7 7 8 8 9 9 9 8 8 9 8 8 9
Wind_Direction
140 143 102 37 53 63 318 307 126 327 97 65 137 152 156 71 171 201 128 141 127 139 149 154 152 147 137 131 128 123 123 123 124 120 112 118 122 121 119 114 112 104 102 98 92 82 73 69 64
131 117 43 81 75 46 292 300 218 241 131 108 95 91 48 98 89 125 116 143 133 138 141 144 152 145 141 138 135 129 123 121 125 126 123 126 127 127 130 128 127 122 118 106 94 75 50 39 43
66 35 76 87 100 163 236 313 99 143 135 94 102 61 112 136 117 147 132 131 125 127 136 158 151 149 142 146 142 131 127 128 125 134 133 131 133 139 136 132 133 130 124 115 103 79 50 50 51
122 15 35 76 23 262 245 8 140 145 12 80 112 71 73 210 160 143 133 128 127 135 146 159 155 152 150 146 141 134 134 131 138 136 139 132 123 144 142 143 149 147 140 129 103 70 48 42 36
38 51 56 66 289 269 269 222 140 122 345 57 90 124 71 26 109 130 135 135 145 148 163 156 157 156 153 149 144 140 138 140 143 138 141 142 128 139 156 155 157 155 152 141 112 79 53 51 28
46 94 54 25 300 282 301 167 151 119 346 160 79 85 132 119 137 146 139 137 149 154 149 156 160 161 158 153 148 144 145 147 145 143 149 149 146 136 159 167 173 186 198 200 205 76 16 31 13
108 82 149 190 301 335 15 155 167 127 176 99 126 92 60 172 136 140 132 122 140 149 144 150 160 167 161 154 153 150 154 153 149 149 152 156 162 170 178 205 215 226 245 266 271 268 271 286 289
107 94 111 256 316 301 268 161 143 144 186 109 148 165 191 183 130 104 95 102 150 141 154 162 162 159 147 152 159 157 159 161 160 161 163 168 181 195 219 240 267 258 260 267 272 274 279 285 280
123 61 79 13 29 318 350 44 350 92 130 111 139 151 152 127 117 113 108 112 163 176 193 171 170 161 153 151 169 166 168 168 170 175 179 179 171 244 247 249 251 263 264 266 271 281 291 292 296
82 102 210 185 193 229 259 204 181 105 132 53 52 93 117 130 142 151 161 167 182 186 194 191 182 175 160 159 165 156 174 158 171 183 195 178 198 221 236 251 263 268 275 279 281 286 291 298 286
141 182 173 202 227 202 217 257 188 115 250 200 172 145 139 142 159 166 178 186 187 185 194 191 184 179 170 170 159 170 171 179 204 206 198 199 205 235 252 263 274 291 281 286 295 299 279 270 264
20 252 208 262 57 305 246 196 158 156 232 160 153 149 147 159 173 181 185 184 178 188 194 182 180 176 179 170 170 170 180 192 213 226 211 196 214 234 243 246 257 257 254 269 273 283 292 289 285
162 274 311 285 286 237 326 242 178 167 93 118 134 151 161 171 182 195 188 181 172 189 192 188 177 187 182 183 174 173 205 201 214 218 224 205 219 237 241 246 252 250 250 252 274 284 292 290 298
307 239 281 288 309 271 75 29 127 124 142 126 150 167 175 184 192 182 175 180 188 187 197 181 189 187 176 188 189 193 193 205 205 217 219 211 213 224 229 246 251 259 232 229 241 255 270 286 291
341 339 345 337 10 13 135 30 239 149 147 151 167 178 182 200 195 199 193 186 190 200 188 187 186 179 186 196 194 195 202 201 211 224 224 225 218 228 236 245 253 248 237 243 231 246 251 262 269
38 49 341 332 352 37 88 266 244 160 149 172 187 187 191 199 205 207 200 195 186 184 191 180 191 184 188 195 191 195 199 212 220 218 216 224 225 221 226 239 248 247 240 242 245 244 255 255 249
5 253 251 317 358 50 79 279 314 161 164 187 196 204 204 204 203 207 203 196 187 192 183 186 188 185 189 186 178 195 206 218 229 223 220 226 227 225 222 231 243 233 235 234 240 259 245 265 270
263 295 282 235 306 25 22 269 289 205 187 194 203 209 213 217 218 201 198 201 197 193 189 191 190 175 167 150 149 190 215 234 226 228 225 229 231 226 219 237 243 227 229 238 222 227 235 247 260
25 303 280 285 266 289 255 250 270 228 213 200 205 210 216 222 224 198 198 197 196 187 169 177 170 173 152 153 165 182 210 214 237 239 263 281 282 269 245 242 241 215 222 239 211 219 244 277 228
27 320 299 287 257 166 295 288 272 195 207 203 207 208 222 217 199 216 192 181 182 188 190 172 185 170 179 168 133 149 164 217 187 160 178 208 304 304 274 257 261 244 223 235 248 202 240 248 200
231 233 247 247 311 277 293 297 299 249 241 223 207 206 226 226 213 215 198 185 160 181 185 183 176 163 146 143 118 101 48 44 50 41 75 34 25 16 8 312 263 249 218 224 236 209 207 241 185
307 215 240 274 18 268 53 285 304 291 256 206 209 211 206 197 160 185 123 97 136 141 136 138 140 140 139 157 149 148 126 71 360 50 37 50 31 27 25 34 42 51 52 31 57 14 359 315 15
226 246 251 258 217 345 257 118 268 323 284 229 215 200 80 106 127 96 87 102 97 107 107 94 84 107 145 153 85 70 26 161 127 96 67 49 36 31 33 33 38 43 51 56 38 54 41 8 58
260 323 320 47 105 278 211 171 270 208 252 343 54 88 112 108 106 99 97 93 83 73 74 81 80 58 66 137 181 160 196 136 121 85 70 44 49 32 35 47 48 51 50 51 53 59 60 53 58
140 62 322 326 350 233 347 156 227 322 286 191 149 133 129 127 120 115 110 108 100 95 90 80 76 69 51 76 88 97 85 80 87 80 80 77 57 44 40 54 61 63 65 63 67 64 58 52 60
190 159 165 232 235 284 152 250 275 341 35 111 118 137 132 132 123 117 120 117 112 105 100 99 93 83 38 55 64 88 83 85 74 75 75 71 73 66 70 63 63 61 64 63 61 61 60 55 51
257 186 212 177 255 356 249 287 295 124 132 148 138 145 138 124 112 104 103 106 113 118 124 122 110 88 112 87 74 69 77 81 83 76 71 67 69 75 68 69 70 62 58 57 59 57 52 58 45
176 182 293 360 218 250 277 262 235 203 187 177 153 142 120 111 109 112 112 100 72 78 83 90 91 88 89 77 74 65 76 84 82 78 74 68 68 77 79 73 71 70 61 58 60 57 44 59 41
356 335 30 160 159 210 278 265 226 196 185 177 145 128 126 124 101 93 92 97 94 93 94 89 78 86 87 90 83 91 85 85 83 84 81 81 77 74 73 74 75 67 67 55 67 61 59 65 56
258 236 204 175 266 235 210 259 352 168 174 164 165 166 164 145 140 134 124 112 106 99 99 102 103 94 96 92 96 94 94 86 77 75 76 74 75 62 79 83 81 77 73 63 65 66 57 62 54